Weather in Oakham

United Kingdom     52°40′24″N   0°43′27″E
temp.,
°C
wind,
m/s
gust,
m/s
humid.,
%
clouds,
%
prec.,
mm/h
press.,
hPa
HPBL,
m
25 january, mon
mon2500:00−3nnw359195 1.5 100294
03:00−3wnw348333 0.0 100447
06:00−3w5108617 0.0 1006192
09:00−2w611920 0.0 1007250
12:00+1w612890 0.0 1008599
15:00+2w612880 0.0 1010597
18:000w613880 0.0 1012389
21:00−1w6129016 0.0 1014290
26 january, tue
tue2600:00−2w511898 0.0 1016233
03:00−2w510910 0.0 1016201
06:00−2wsw469016 0.0 1017116
09:00−1sw4890100 0.0 1018188
12:00+2sw4109395 0.0 1018331
15:00+2ssw4109598 0.0 1016456
18:00+2s5129999 0.7 1014385
21:00+3ssw41199100 2.8 1013337
27 january, wed
wed2700:00+4wsw4999100 2.8 1012216
03:00+4w4699100 0.0 1011125
06:00+4wsw4799100 0.0 1012140
09:00+4w2399100 0.3 101239
12:00+4ssw3399100 1.9 101277
15:00+5ssw3799100 0.5 1011164
18:00+6sw4999100 0.6 1009232
21:00+6ssw3899100 0.4 1007177
28 january, thu
thu2800:00+7s51299100 4.6 1003411
03:00+8sw51498100 5.2 999610
06:00+8wsw7179292 5.4 998908
09:00+8wsw10198565 0.0 9991041
12:00+10wsw10197935 0.0 10001165
15:00+9wsw1019740 0.0 9991152
18:00+9wsw717872 0.0 999765
21:00+9sw8169198 0.2 996808
29 january, fri
fri2900:00+10wsw9178899 1.1 9941149
03:00+7wsw9178349 0.1 9931097
06:00+7wsw12208275 0.1 9931196
09:00+7w111984100 0.1 9951285
12:00+7w11197699 0.2 9981461
15:00+8w8157680 0.1 10001221
18:00+5w6138490 0.1 1002581
21:00+5w5128794 0.1 1003478